星链-37121(STARLINK-37121)

导读

STARLINK-37121(NORAD编号68383)是美国SpaceX公司星链(Starlink)低轨互联网星座中的一员,属于第二代星链卫星组网的组成部分。星链项目旨在打造覆盖全球的高速低轨卫星互联网,该卫星运行于近地轨道,为偏远地区、移动场景等提供宽带互联网接入服务,助力全球网络覆盖。作为星链大规模部署中的一颗卫星,它承担着星座组网的通信转发功能,延续星链卫星的设计,具备高性能通信能力,支撑星链全球平均下载速度超200Mbps、低至26ms延迟的服务体验,是SpaceX推进近地轨道星座建设的重要组成部分。

基本信息
目录编号:
68383
目录名称:
STARLINK-37121
国际标识:
2026-063D
轨道中心:
EARTH
卫星名称:
星链-37121
卫星全名:
星链-37121(STARLINK-37121)
卫星状态:
在轨 (已飞行162 天)
发射日期:
2026-03-26 UTC
国别 :
美国 (US)
星等 :
--
轨道信息
数据来源 国际轨道数据
星历时间: 2026-09-04T01:17:58+0800
11小时前
查看轨道信息
半长轴: 6843.649km
偏心率: 0.0000912
轨道倾角: 97.285°
近地点辐角 104.255°
升交点赤经 27.766°
平近点角 255.879°
近地点: 464.887km
远地点: 466.137km
周期: 93.906分钟
每日圈数: 15.334555
详细信息
固有亮度:
5
最大亮度:
2.5
卫星平台:
Starlink V1.0
覆盖范围:
全球
运营商:
太空探索技术公司
运营商所在国:
美国
制造商(研发单位):
太空探索技术公司
制造商所在国:
美国
使用方式:
暂无
卫星简介
Starlink 计划是 SpaceX 推出的全球卫星互联网项目,通过发射低轨道卫星,为全球尤其是偏远地区提供高速、低延迟的互联网服务。自 2019 年起,Starlink 已部署数千颗卫星,旨在缩小全球数字鸿沟,推动互联网普及。该项目还为军事、航空等行业提供通信支持,带来广泛经济效益。
2D轨道图
3D轨道图
轨道高度分析图
轨道倾角分析图
轨道综合分析图
查看轨道综合分析图
交会数据列表
事件ID 空间交会对象 最接近时刻(TCA) 交会距离 交会风险概率(CRP) 交会风险指数(CRI) 操作
CDM_260901-073405-197206-838321
2026-09-01T
07:34:56+0000
2.999 km
极远距离
1.12357E-6 低风险 0.36
CDM_260905-004605-209006-838321
2026-09-05T
00:46:08+0000
2.898 km
极远距离
9.187317E-7 极低风险 0.34